AV194 Weather Reports


time (UTC)temp
F
wind
direction
speed
knots
gust
knots
rain 1hr
in
rain 24hr
in
rain mn
in
humidity
%
barometer
mb
20260507050544 52 317 0.9 1.7 0.00 0.33 0.00 92 1006.2
20260507050052 52 327 0.0 1.7 0.00 0.33 0.00 92 1006.2
20260507045544 52 327 0.0 1.7 0.00 0.33 0.00 92 1006.1
20260507045043 52 327 0.0 3.5 0.00 0.33 0.00 92 1006.0
20260507044549 53 355 0.9 4.3 0.00 0.33 0.00 92 1006.0
20260507044041 53 40 0.9 4.3 0.00 0.33 0.00 93 1005.8
20260507043541 53 310 0.0 1.7 0.00 0.33 0.00 92 1006.1
20260507043044 53 173 0.0 1.7 0.00 0.33 0.00 93 1006.2
20260507042540 53 299 0.0 3.5 0.00 0.33 0.00 93 1006.1
20260507042038 53 326 0.9 3.5 0.00 0.33 0.00 93 1006.1
20260507041541 53 304 0.0 3.5 0.00 0.33 0.00 93 1006.2
20260507041037 53 296 0.0 1.7 0.00 0.33 0.00 94 1006.3
20260507040536 54 287 0.0 1.7 0.00 0.33 0.00 94 1006.2
20260507040037 54 257 0.0 1.7 0.00 0.33 0.33 94 1006.1
20260507035534 54 284 0.0 3.5 0.00 0.33 0.33 94 1005.9
20260507035033 54 332 0.9 3.5 0.00 0.33 0.33 94 1005.8
20260507034533 54 316 0.9 2.6 0.00 0.33 0.33 94 1005.6
20260507034032 54 318 0.9 3.5 0.00 0.33 0.33 95 1005.7
20260507033532 54 311 0.9 2.6 0.00 0.33 0.33 95 1005.5
20260507033033 55 302 0.9 3.5 0.00 0.33 0.33 95 1005.4
20260507032530 55 319 0.9 5.2 0.00 0.33 0.33 95 1005.3
20260507032029 55 338 2.6 5.2 0.00 0.33 0.33 95 1005.4
20260507031529 56 360 0.9 2.6 0.00 0.33 0.33 96 1005.4
20260507031032 56 331 0.0 3.5 0.00 0.33 0.33 96 1005.1
20260507030529 56 348 0.9 2.6 0.00 0.33 0.33 95 1005.1
20260507030027 57 16 0.9 4.3 0.00 0.33 0.33 95 1005.0
20260507025526 57 98 0.9 4.3 0.00 0.33 0.33 96 1005.0
20260507025026 57 286 0.0 1.7 0.00 0.33 0.33 96 1005.1
20260507024526 58 293 0.0 3.5 0.00 0.33 0.33 96 1005.1
20260507024025 58 328 0.0 3.5 0.00 0.33 0.33 96 1004.9
20260507023526 58 338 0.0 3.5 0.00 0.33 0.33 96 1004.9
20260507023028 58 300 0.9 4.3 0.00 0.33 0.33 95 1004.9
20260507022530 59 248 0.9 7.0 0.00 0.33 0.33 96 1004.9
20260507022027 59 298 0.9 7.0 0.00 0.33 0.33 96 1004.7
20260507021524 59 218 0.0 0.9 0.00 0.33 0.33 96 1004.4
20260507021024 59 215 0.0 1.7 0.00 0.33 0.33 96 1004.3
20260507020524 59 215 0.0 1.7 0.00 0.33 0.33 96 1004.3
20260507020024 59 206 0.0 0.9 0.00 0.33 0.33 96 1004.3
20260507015525 59 206 0.0 1.7 0.00 0.33 0.33 96 1004.4
20260507015023 59 206 0.0 1.7 0.00 0.33 0.33 96 1004.3
20260507014533 59 206 0.0 1.7 0.00 0.33 0.33 96 1004.2
20260507014023 59 206 0.0 1.7 0.00 0.33 0.33 96 1004.2
20260507013522 59 206 0.0 1.7 0.00 0.33 0.33 96 1004.2
20260507013022 59 193 0.0 1.7 0.00 0.33 0.33 96 1004.3
20260507012522 59 212 0.0 1.7 0.00 0.33 0.33 96 1004.2
20260507012024 59 212 0.0 1.7 0.00 0.33 0.33 96 1004.2
20260507011522 59 212 0.0 2.6 0.00 0.33 0.33 96 1004.3
20260507011023 59 172 0.9 1.7 0.00 0.33 0.33 96 1004.3
20260507010522 59 184 0.0 1.7 0.00 0.33 0.33 96 1004.2
20260507010021 59 205 0.0 2.6 0.00 0.33 0.33 96 1004.2
20260507005522 59 202 0.0 3.5 0.00 0.33 0.33 96 1004.3
20260507005020 59 202 0.9 3.5 0.00 0.33 0.33 96 1004.2
20260507004523 59 233 0.0 2.6 0.00 0.33 0.33 95 1004.2
20260507004023 59 205 0.9 3.5 0.00 0.33 0.33 95 1004.2
20260507003521 59 200 0.0 1.7 0.00 0.33 0.33 95 1004.0
20260507003021 59 237 0.9 2.6 0.00 0.33 0.33 95 1003.9
20260507002519 59 219 0.0 3.5 0.00 0.33 0.33 95 1003.9
20260507002021 59 174 0.9 4.3 0.00 0.33 0.33 95 1003.9
20260507001525 59 245 1.7 4.3 0.00 0.33 0.33 95 1004.0
20260507001020 59 171 0.9 4.3 0.00 0.33 0.33 95 1004.0
20260507000519 59 219 0.9 2.6 0.00 0.33 0.33 95 1003.9
20260507000030 59 229 0.9 3.5 0.01 0.33 0.33 95 1003.9
20260506235519 59 238 0.9 3.5 0.01 0.33 0.33 95 1003.9
20260506235017 59 215 0.9 3.5 0.02 0.33 0.33 95 1003.9
20260506234518 59 199 0.9 3.5 0.02 0.33 0.33 95 1003.9
20260506234018 59 222 0.9 3.5 0.02 0.33 0.33 95 1003.8
20260506233518 59 223 0.9 4.3 0.02 0.33 0.33 95 1003.8
20260506233017 59 244 1.7 4.3 0.02 0.33 0.33 95 1003.8
20260506232517 59 196 0.9 4.3 0.02 0.33 0.33 95 1003.8
20260506232016 59 196 1.7 4.3 0.02 0.33 0.33 95 1003.9
20260506231516 59 187 1.7 4.3 0.02 0.33 0.33 95 1003.9
20260506231018 59 155 1.7 5.2 0.02 0.33 0.33 95 1003.8
20260506230515 59 181 1.7 5.2 0.02 0.33 0.33 95 1003.9
20260506230017 59 232 0.9 4.3 0.01 0.32 0.32 95 1004.0
20260506225517 59 174 0.9 4.3 0.01 0.32 0.32 95 1004.0
20260506225014 60 230 0.9 3.5 0.00 0.31 0.31 95 1004.1
20260506224514 60 209 0.9 6.1 0.00 0.31 0.31 95 1004.1
20260506224015 60 225 2.6 6.1 0.00 0.31 0.31 95 1004.1
20260506223513 60 180 0.9 3.5 0.00 0.31 0.31 95 1004.1
20260506223013 60 171 0.9 3.5 0.00 0.31 0.31 95 1004.0
20260506222513 60 173 0.0 4.3 0.01 0.31 0.31 95 1004.1
20260506222013 60 193 0.0 4.3 0.01 0.31 0.31 95 1004.1
20260506221512 60 178 0.9 4.3 0.02 0.31 0.31 95 1004.1
20260506221017 60 181 0.9 5.2 0.02 0.31 0.31 95 1004.2
20260506220512 60 190 0.0 5.2 0.03 0.31 0.31 95 1004.2
20260506220019 60 183 0.9 4.3 0.03 0.31 0.31 95 1004.3
20260506215516 60 214 0.9 3.5 0.04 0.31 0.31 95 1004.3
20260506215010 60 217 0.0 3.5 0.04 0.31 0.31 95 1004.3
20260506214511 60 229 0.9 3.5 0.05 0.31 0.31 94 1004.3
20260506214009 60 311 0.9 4.3 0.05 0.31 0.31 94 1004.3
20260506213509 60 189 1.7 4.3 0.06 0.31 0.31 94 1004.2
20260506213127 60 215 0.0 4.3 0.06 0.31 0.31 94 1004.3
20260506212508 60 209 1.7 3.5 0.06 0.30 0.30 94 1004.3
20260506212008 60 188 0.9 3.5 0.06 0.30 0.30 94 1004.4
20260506211510 60 200 0.9 3.5 0.05 0.28 0.28 94 1004.4
20260506211007 61 252 0.9 4.3 0.05 0.28 0.28 94 1004.5
20260506210506 61 202 1.7 6.1 0.05 0.28 0.28 94 1004.5
20260506210009 61 230 1.7 6.1 0.06 0.28 0.28 94 1004.6
20260506205505 61 179 0.9 6.1 0.06 0.27 0.27 94 1004.6
20260506205005 61 200 1.7 7.0 0.06 0.27 0.27 94 1004.4
20260506204505 61 242 1.7 7.0 0.05 0.26 0.26 94 1004.6
20260506204004 61 115 1.7 4.3 0.05 0.26 0.26 94 1004.6
20260506203508 61 165 0.9 3.5 0.04 0.25 0.25 93 1004.6
20260506203007 62 206 0.9 6.1 0.03 0.24 0.24 94 1004.7
20260506202505 61 242 1.7 6.1 0.03 0.24 0.24 94 1004.6
20260506202004 61 208 1.7 5.2 0.03 0.24 0.24 94 1004.7
20260506201504 62 222 2.6 5.2 0.03 0.24 0.24 94 1004.7
20260506201003 61 166 1.7 4.3 0.02 0.23 0.23 94 1004.7
20260506200505 62 172 0.9 5.2 0.03 0.23 0.23 94 1004.8
20260506200004 61 224 2.6 5.2 0.02 0.22 0.22 94 1004.9
20260506195503 62 239 0.9 4.3 0.01 0.21 0.21 94 1005.0
20260506195003 62 208 0.9 3.5 0.01 0.21 0.21 94 1005.0
20260506194503 62 198 0.0 1.7 0.02 0.21 0.21 94 1005.0
20260506194003 62 263 0.0 1.7 0.02 0.21 0.21 94 1005.0
20260506193502 62 219 0.0 5.2 0.03 0.21 0.21 94 1005.0
20260506193002 62 213 0.9 5.2 0.03 0.21 0.21 94 1004.9
20260506192506 62 224 0.9 1.7 0.04 0.21 0.21 94 1004.9
20260506192002 62 218 0.9 5.2 0.05 0.21 0.21 94 1004.8
20260506191502 62 203 0.9 5.2 0.06 0.21 0.21 94 1004.7
20260506191002 62 226 0.9 3.5 0.07 0.20 0.20 94 1004.6
20260506190502 62 161 0.9 2.6 0.10 0.20 0.20 93 1004.6
20260506185559 62 182 0.0 3.5 0.13 0.20 0.20 93 1005.1
20260506185059 62 188 0.9 3.5 0.14 0.20 0.20 93 1005.0
20260506184559 62 185 0.0 3.5 0.13 0.19 0.19 93 1005.1
20260506184058 62 209 0.0 0.9 0.14 0.19 0.19 93 1005.1
20260506183558 62 202 0.0 0.9 0.15 0.18 0.18 93 1005.4
20260506183058 62 202 0.0 0.9 0.16 0.18 0.18 93 1005.5
20260506182557 62 202 0.0 1.7 0.16 0.17 0.17 93 1005.5
20260506182056 62 271 0.0 1.7 0.17 0.17 0.17 92 1005.5
20260506181556 62 275 0.0 1.7 0.16 0.16 0.16 92 1005.7
20260506181056 62 219 0.0 1.7 0.13 0.13 0.13 91 1005.7
20260506180557 63 212 0.0 1.7 0.10 0.10 0.10 91 1005.7
20260506180104 63 169 0.0 0.0 0.08 0.08 0.08 91 1005.6
20260506175554 63 169 0.0 0.0 0.07 0.07 0.07 90 1005.7
20260506175058 64 169 0.0 0.9 0.06 0.06 0.06 89 1005.9
20260506174556 64 169 0.0 1.7 0.06 0.06 0.06 88 1005.8
20260506174054 64 102 0.0 3.5 0.05 0.05 0.05 86 1005.7
20260506173553 65 213 0.0 3.5 0.03 0.03 0.03 84 1005.9
20260506173058 66 186 0.0 2.6 0.02 0.02 0.02 82 1005.8
20260506172552 67 130 0.9 3.5 0.01 0.01 0.01 78 1005.5
20260506172052 69 202 0.9 3.5 0.00 0.00 0.00 73 1005.5
20260506171557 69 211 0.9 4.3 0.00 0.00 0.00 68 1005.4
20260506171054 70 144 0.0 6.1 0.00 0.00 0.00 66 1005.2
20260506170552 70 206 0.9 6.1 0.00 0.00 0.00 64 1005.4
20260506170103 70 223 2.6 7.0 0.00 0.00 0.00 63 1005.4
20260506165551 70 245 1.7 7.0 0.00 0.00 0.00 63 1005.4
20260506165051 70 211 1.7 7.0 0.00 0.00 0.00 62 1005.6
20260506164551 70 238 0.9 3.5 0.00 0.00 0.00 63 1005.6
20260506164053 71 236 0.9 4.3 0.00 0.00 0.00 63 1005.6
20260506163549 71 244 0.9 4.3 0.00 0.00 0.00 63 1005.7
20260506163109 71 230 0.9 4.3 0.00 0.00 0.00 63 1005.7
20260506162546 71 215 1.7 4.3 0.00 0.00 0.00 64 1005.8
20260506162048 71 173 0.9 7.0 0.00 0.00 0.00 64 1005.9
20260506161546 71 168 2.6 7.0 0.00 0.00 0.00 64 1006.0
20260506161044 70 200 1.7 6.1 0.00 0.00 0.00 65 1006.0
20260506160544 71 227 3.5 6.1 0.00 0.00 0.00 65 1006.2
20260506160042 70 169 1.7 4.3 0.00 0.00 0.00 66 1006.3
20260506155543 70 181 0.9 5.2 0.00 0.00 0.00 66 1006.5
20260506155040 70 237 0.0 7.8 0.00 0.00 0.00 66 1006.6
20260506154553 69 197 2.6 7.0 0.00 0.00 0.00 67 1006.7
20260506154038 69 278 3.5 7.0 0.00 0.00 0.00 67 1006.8
20260506153537 69 195 2.6 4.3 0.00 0.00 0.00 67 1006.9
20260506153048 69 219 0.9 4.3 0.00 0.00 0.00 66 1006.8
20260506152537 69 171 0.9 6.1 0.00 0.00 0.00 68 1007.1
20260506152038 69 197 2.6 6.1 0.00 0.00 0.00 67 1007.1
20260506151537 69 231 0.9 9.6 0.00 0.00 0.00 68 1007.2
20260506151038 69 265 1.7 6.1 0.00 0.00 0.00 67 1007.2
20260506150537 69 213 2.6 8.7 0.00 0.00 0.00 67 1007.3
20260506150036 69 265 3.5 7.0 0.00 0.00 0.00 68 1007.2
20260506145536 69 213 2.6 5.2 0.00 0.00 0.00 69 1007.1
20260506145035 69 251 1.7 5.2 0.00 0.00 0.00 70 1007.1
20260506144534 68 243 0.9 7.0 0.00 0.00 0.00 69 1007.3
20260506144034 69 254 2.6 7.0 0.00 0.00 0.00 69 1007.3
20260506143537 69 203 0.9 5.2 0.00 0.00 0.00 69 1007.1
20260506143045 68 211 0.9 5.2 0.00 0.00 0.00 70 1007.1
20260506142531 68 211 0.9 5.2 0.00 0.00 0.00 71 1007.0
20260506142030 67 186 0.9 5.2 0.00 0.00 0.00 73 1007.0
20260506141534 67 182 0.9 5.2 0.00 0.00 0.00 72 1007.1
20260506141031 67 177 1.7 6.1 0.00 0.00 0.00 73 1007.1
20260506140530 67 200 2.6 6.1 0.00 0.00 0.00 72 1006.9
20260506140028 67 165 0.9 4.3 0.00 0.00 0.00 73 1006.8
20260506135526 67 219 1.7 5.2 0.00 0.00 0.00 72 1006.8
20260506135026 67 208 2.6 6.1 0.00 0.00 0.00 73 1007.1
20260506134525 67 205 2.6 6.1 0.00 0.00 0.00 74 1007.0
20260506134025 66 202 0.9 2.6 0.00 0.00 0.00 74 1007.0
20260506133523 66 241 1.7 5.2 0.00 0.00 0.00 75 1007.2
20260506133021 65 190 0.9 4.3 0.00 0.00 0.00 75 1007.3
20260506132520 65 267 0.9 7.8 0.00 0.00 0.00 74 1007.3
20260506132019 65 252 2.6 7.8 0.00 0.00 0.00 75 1007.4
20260506131519 65 236 2.6 6.1 0.00 0.00 0.00 75 1007.5
20260506131021 65 161 2.6 7.0 0.00 0.00 0.00 75 1007.6
20260506130519 65 221 2.6 7.0 0.00 0.00 0.00 75 1007.6
20260506130018 65 265 2.6 5.2 0.00 0.00 0.00 75 1007.6
20260506125517 65 181 0.9 4.3 0.00 0.00 0.00 75 1007.5
20260506125017 65 168 1.7 7.0 0.00 0.00 0.00 75 1007.5
20260506124517 65 215 2.6 7.0 0.00 0.00 0.00 75 1007.6
20260506124016 65 175 2.6 5.2 0.00 0.00 0.00 75 1007.7
20260506123515 65 177 0.9 3.5 0.00 0.00 0.00 75 1007.5
20260506123014 64 91 0.9 4.3 0.00 0.00 0.00 77 1007.5
20260506122513 64 215 0.9 4.3 0.00 0.00 0.00 77 1007.3
20260506122012 63 201 1.7 4.3 0.00 0.00 0.00 77 1007.4
20260506121512 63 184 1.7 5.2 0.00 0.00 0.00 77 1007.5
20260506121012 63 249 1.7 6.1 0.00 0.00 0.00 77 1007.7
20260506120512 64 201 2.6 7.0 0.00 0.00 0.00 76 1007.7
20260506120011 64 213 2.6 6.1 0.00 0.00 0.00 78 1007.7
20260506115510 63 187 1.7 6.1 0.00 0.00 0.00 79 1007.6
20260506115008 62 203 0.9 4.3 0.00 0.00 0.00 80 1007.8
20260506114510 62 195 0.9 4.3 0.00 0.00 0.00 79 1007.9
20260506114006 62 211 0.9 7.0 0.00 0.00 0.00 80 1008.0
20260506113506 61 206 0.9 7.0 0.00 0.00 0.00 80 1007.9
20260506113006 61 190 1.7 4.3 0.00 0.00 0.00 81 1008.0
20260506112505 61 188 0.9 3.5 0.00 0.00 0.00 81 1007.9
20260506112003 61 221 1.7 5.2 0.00 0.00 0.00 81 1008.1
20260506111506 61 180 0.9 5.2 0.00 0.00 0.00 81 1008.1
20260506111003 61 254 0.9 2.6 0.00 0.00 0.00 81 1008.1
20260506110504 61 223 0.9 2.6 0.00 0.00 0.00 81 1008.0
20260506110002 60 227 0.9 3.5 0.00 0.00 0.00 82 1008.0
20260506105602 60 238 0.9 5.2 0.00 0.00 0.00 82 1008.0
20260506105001 60 246 1.7 5.2 0.00 0.00 0.00 83 1008.1
20260506104600 59 224 0.9 3.5 0.00 0.00 0.00 84 1008.1
20260506104058 59 180 0.0 3.5 0.00 0.00 0.00 84 1008.1
20260506103557 58 219 0.0 1.7 0.00 0.00 0.00 84 1008.2
20260506103057 58 222 0.9 3.5 0.00 0.00 0.00 84 1008.1
20260506102557 58 208 0.9 4.3 0.00 0.00 0.00 85 1008.0
20260506102057 58 229 1.7 4.3 0.00 0.00 0.00 85 1008.0
20260506101604 58 196 0.0 0.9 0.00 0.00 0.00 85 1007.9
20260506101055 58 190 0.0 1.7 0.00 0.00 0.00 86 1007.9
20260506100555 58 190 0.0 1.7 0.00 0.00 0.00 86 1008.1
20260506100053 57 189 0.0 1.7 0.00 0.00 0.00 86 1008.0
20260506095556 57 189 0.0 3.5 0.00 0.00 0.00 86 1008.1
20260506095053 57 182 0.0 1.7 0.00 0.00 0.00 86 1008.2
20260506094615 57 194 0.0 1.7 0.00 0.00 0.00 86 1008.1
20260506094052 57 194 0.0 1.7 0.00 0.00 0.00 87 1008.0
20260506093551 57 194 0.0 1.7 0.00 0.00 0.00 86 1007.9
20260506093055 57 209 0.0 1.7 0.00 0.00 0.00 87 1007.9
20260506092551 56 186 0.0 1.7 0.00 0.00 0.00 87 1007.8
20260506092050 56 184 0.0 3.5 0.00 0.00 0.00 86 1007.9
20260506091550 56 206 0.0 1.7 0.00 0.00 0.00 86 1008.1
20260506091049 56 206 0.0 1.7 0.00 0.00 0.00 86 1008.0
20260506090549 56 206 0.0 1.7 0.00 0.00 0.00 86 1007.9
20260506090048 57 189 0.0 3.5 0.00 0.00 0.00 85 1007.8
20260506085548 57 189 0.0 3.5 0.00 0.00 0.00 85 1007.9
20260506085048 57 194 0.0 0.9 0.00 0.00 0.00 85 1008.0
20260506084548 57 186 0.0 1.7 0.00 0.00 0.00 85 1008.0
20260506084051 57 180 0.0 1.7 0.00 0.00 0.00 84 1007.9
20260506083546 57 180 0.0 1.7 0.00 0.00 0.00 84 1008.1
20260506083046 57 180 0.0 1.7 0.00 0.00 0.00 83 1008.0
20260506082550 57 84 0.0 0.9 0.00 0.00 0.00 84 1008.0
20260506082045 57 84 0.0 0.9 0.00 0.00 0.00 83 1007.9
20260506081545 57 60 0.0 0.9 0.00 0.00 0.00 83 1007.9
20260506081046 57 60 0.0 0.9 0.00 0.00 0.00 83 1007.9
20260506080546 57 60 0.0 1.7 0.00 0.00 0.00 83 1007.9
20260506073046 57 214 0.0 0.9 0.00 0.00 0.00 81 1007.8
20260506072542 57 214 0.0 1.7 0.00 0.00 0.00 82 1007.7
20260506072042 57 214 0.9 1.7 0.00 0.00 0.00 81 1007.7
20260506071542 57 211 0.0 0.9 0.00 0.00 0.00 81 1007.6
20260506071041 57 211 0.0 0.9 0.00 0.00 0.00 81 1007.6
20260506070642 57 211 0.0 0.9 0.00 0.00 0.00 81 1007.6
20260506062034 59 211 0.0 0.0 0.00 0.00 0.00 77 1007.7
20260506061536 59 211 0.0 0.9 0.00 0.00 0.00 77 1007.6
20260506061033 59 211 0.0 0.9 0.00 0.00 0.00 76 1007.5
20260506060530 59 211 0.0 0.9 0.00 0.00 0.00 76 1007.5